ITY721 LGAV-LIRF

Flight info

Callsign ITY721
Flight time 1h 54m
Altitude 30000
Route KOR UL53 IXONI DCT OLGAT DCT TOPNO DCT DOGUS DCT EKTOL DCT AMSOR DCT IPKAM DCT TEA DCT SIPRO DCT LAT
Aircraft A320/M-SDE3FGHIRWY/LB1

Departure

Time 2026-05-07 18:09
Airport Athens Eleftherios Venizelos International Airport (LGAV)

Arrival

Time 2026-05-07 20:03
Airport Rome–Fiumicino Leonardo da Vinci International Airport (LIRF)
Time Latitude Longitude Altitude Speed Heading
2026-05-07 17:39 37.93794 23.95020 301 ft 0 kts 306°
2026-05-07 17:59 37.93782 23.95040 302 ft 3 kts 311°
2026-05-07 17:59 37.93768 23.95059 300 ft 3 kts 319°
2026-05-07 17:59 37.93752 23.95074 302 ft 3 kts 334°
2026-05-07 17:59 37.93734 23.95082 300 ft 3 kts
2026-05-07 18:00 37.93722 23.95076 300 ft 1 kts 37°
2026-05-07 18:00 37.93720 23.95074 300 ft 0 kts 37°
2026-05-07 18:02 37.93721 23.95075 300 ft 1 kts 39°
2026-05-07 18:02 37.93719 23.95106 306 ft 4 kts 123°
2026-05-07 18:03 37.93700 23.95135 302 ft 6 kts 123°
2026-05-07 18:03 37.93708 23.95193 300 ft 9 kts 46°
2026-05-07 18:03 37.93768 23.95250 299 ft 13 kts 36°
2026-05-07 18:03 37.93853 23.95330 300 ft 18 kts 37°
2026-05-07 18:04 37.93964 23.95435 302 ft 22 kts 37°
2026-05-07 18:04 37.94082 23.95550 301 ft 17 kts 43°
2026-05-07 18:04 37.94087 23.95686 297 ft 16 kts 70°
2026-05-07 18:04 37.94164 23.95771 300 ft 14 kts 36°
2026-05-07 18:05 37.94249 23.95850 299 ft 19 kts 37°
2026-05-07 18:05 37.94373 23.95969 299 ft 25 kts 37°
2026-05-07 18:05 37.94517 23.96104 299 ft 26 kts 36°
2026-05-07 18:05 37.94665 23.96245 303 ft 27 kts 37°
2026-05-07 18:06 37.94818 23.96388 302 ft 28 kts 36°
2026-05-07 18:06 37.94973 23.96536 303 ft 28 kts 37°
2026-05-07 18:06 37.95127 23.96681 305 ft 26 kts 37°
2026-05-07 18:06 37.95273 23.96820 305 ft 19 kts 37°
2026-05-07 18:07 37.95294 23.96910 304 ft 8 kts 131°
2026-05-07 18:07 37.95268 23.96949 306 ft 5 kts 130°
2026-05-07 18:07 37.95222 23.97019 310 ft 11 kts 137°
2026-05-07 18:07 37.95162 23.96996 310 ft 9 kts 217°
2026-05-07 18:08 37.95014 23.96854 309 ft 60 kts 217°
2026-05-07 18:08 37.94500 23.96365 291 ft 123 kts 217°
2026-05-07 18:08 37.93679 23.95581 295 ft 169 kts 218°
2026-05-07 18:08 37.92694 23.94744 907 ft 170 kts 211°
2026-05-07 18:09 37.91668 23.94047 1581 ft 171 kts 206°
2026-05-07 18:09 37.90560 23.93310 1976 ft 190 kts 207°
2026-05-07 18:09 37.89314 23.92478 2253 ft 214 kts 207°
2026-05-07 18:09 37.87937 23.91550 2764 ft 231 kts 208°
2026-05-07 18:10 37.86503 23.90574 3476 ft 237 kts 208°
2026-05-07 18:10 37.85032 23.89572 4259 ft 243 kts 208°
2026-05-07 18:10 37.83551 23.88564 5061 ft 247 kts 209°
2026-05-07 18:10 37.82028 23.87526 5863 ft 251 kts 209°
2026-05-07 18:11 37.80480 23.86471 6649 ft 254 kts 209°
2026-05-07 18:11 37.79425 23.85751 7155 ft 256 kts 210°
2026-05-07 18:11 37.77331 23.84322 8180 ft 260 kts 210°
2026-05-07 18:11 37.75729 23.83225 8957 ft 263 kts 210°
2026-05-07 18:12 37.74108 23.82120 9735 ft 266 kts 210°
2026-05-07 18:12 37.72464 23.81015 10473 ft 269 kts 210°
2026-05-07 18:12 37.70801 23.79906 11171 ft 272 kts 210°
2026-05-07 18:12 37.69141 23.78804 11860 ft 275 kts 210°
2026-05-07 18:13 37.67440 23.77677 12561 ft 278 kts 210°
2026-05-07 18:13 37.65721 23.76537 13260 ft 281 kts 210°
2026-05-07 18:13 37.63985 23.75384 13943 ft 284 kts 210°
2026-05-07 18:13 37.62236 23.74222 14574 ft 285 kts 211°
2026-05-07 18:14 37.60482 23.73055 15247 ft 285 kts 212°
2026-05-07 18:14 37.58717 23.71884 15872 ft 288 kts 212°
2026-05-07 18:14 37.56972 23.70621 16358 ft 293 kts 222°
2026-05-07 18:14 37.55693 23.68597 16486 ft 304 kts 248°
2026-05-07 18:15 37.55135 23.65964 16620 ft 321 kts 260°
2026-05-07 18:15 37.54699 23.63165 16746 ft 339 kts 259°
2026-05-07 18:15 37.54226 23.60199 17072 ft 350 kts 259°
2026-05-07 18:15 37.53732 23.57180 17614 ft 354 kts 259°
2026-05-07 18:16 37.53223 23.54133 18202 ft 357 kts 259°
2026-05-07 18:16 37.52706 23.51064 18738 ft 360 kts 259°
2026-05-07 18:16 37.52185 23.47968 19228 ft 363 kts 259°
2026-05-07 18:16 37.51661 23.44842 19729 ft 366 kts 259°
2026-05-07 18:17 37.51134 23.41687 20223 ft 370 kts 260°
2026-05-07 18:17 37.50608 23.38536 20660 ft 375 kts 260°
2026-05-07 18:17 37.50068 23.35315 21142 ft 378 kts 260°
2026-05-07 18:17 37.49519 23.32059 21626 ft 382 kts 260°
2026-05-07 18:18 37.49028 23.28764 22114 ft 383 kts 267°
2026-05-07 18:18 37.49175 23.25431 22584 ft 383 kts 284°
2026-05-07 18:18 37.50122 23.22312 23038 ft 383 kts 301°
2026-05-07 18:18 37.51793 23.19695 23493 ft 387 kts 317°
2026-05-07 18:19 37.54043 23.17817 23906 ft 392 kts 332°
2026-05-07 18:19 37.56464 23.16325 24303 ft 393 kts 332°
2026-05-07 18:19 37.58926 23.14812 24726 ft 394 kts 331°
2026-05-07 18:19 37.61390 23.13296 25137 ft 394 kts 331°
2026-05-07 18:20 37.63856 23.11774 25550 ft 395 kts 330°
2026-05-07 18:20 37.66323 23.10245 25934 ft 395 kts 330°
2026-05-07 18:20 37.68787 23.08713 26323 ft 396 kts 330°
2026-05-07 18:20 37.71260 23.07173 26703 ft 397 kts 330°
2026-05-07 18:21 37.73743 23.05629 27027 ft 398 kts 330°
2026-05-07 18:21 37.76235 23.04080 27369 ft 400 kts 329°
2026-05-07 18:21 37.78732 23.02524 27733 ft 400 kts 329°
2026-05-07 18:21 37.81199 23.00986 28098 ft 401 kts 329°
2026-05-07 18:22 37.83708 22.99425 28461 ft 402 kts 329°
2026-05-07 18:22 37.85375 22.98388 28696 ft 403 kts 329°
2026-05-07 18:22 37.88739 22.96291 29155 ft 404 kts 329°
2026-05-07 18:22 37.91201 22.94602 29452 ft 401 kts 322°
2026-05-07 18:23 37.93364 22.92415 29754 ft 397 kts 312°
2026-05-07 18:23 37.95155 22.89777 30031 ft 394 kts 304°
2026-05-07 18:23 37.96713 22.86950 30114 ft 385 kts 303°
2026-05-07 18:24 37.99693 22.81536 30117 ft 374 kts 303°
2026-05-07 18:24 38.02658 22.76139 30114 ft 373 kts 303°
2026-05-07 18:25 38.05623 22.70729 30119 ft 374 kts 303°
2026-05-07 18:25 38.08570 22.65347 30120 ft 374 kts 303°
2026-05-07 18:26 38.11536 22.59939 30117 ft 373 kts 303°
2026-05-07 18:26 38.14501 22.54526 30114 ft 373 kts 303°
2026-05-07 18:27 38.17454 22.49108 30112 ft 373 kts 303°
2026-05-07 18:27 38.20384 22.43722 30105 ft 373 kts 302°
2026-05-07 18:28 38.23332 22.38297 30112 ft 373 kts 302°
2026-05-07 18:28 38.26280 22.32869 30112 ft 373 kts 302°
2026-05-07 18:29 38.29224 22.27436 30111 ft 373 kts 302°
2026-05-07 18:29 38.32158 22.22051 30125 ft 373 kts 304°
2026-05-07 18:30 38.35364 22.16823 30117 ft 375 kts 306°
2026-05-07 18:30 38.38688 22.11682 30110 ft 376 kts 306°
2026-05-07 18:31 38.41987 22.06501 30108 ft 376 kts 306°
2026-05-07 18:31 38.45231 22.01311 30110 ft 376 kts 305°
2026-05-07 18:32 38.48475 21.96080 30108 ft 376 kts 305°
2026-05-07 18:32 38.51725 21.90852 30106 ft 376 kts 305°
2026-05-07 18:33 38.54972 21.85619 30108 ft 376 kts 305°
2026-05-07 18:33 38.58227 21.80377 30115 ft 376 kts 305°
2026-05-07 18:34 38.61447 21.75167 30112 ft 377 kts 305°
2026-05-07 18:34 38.64690 21.69907 30107 ft 376 kts 305°
2026-05-07 18:35 38.67940 21.64646 30105 ft 377 kts 305°
2026-05-07 18:35 38.71174 21.59404 30116 ft 378 kts 305°
2026-05-07 18:36 38.74422 21.54118 30127 ft 378 kts 304°
2026-05-07 18:36 38.77667 21.48827 30118 ft 377 kts 304°
2026-05-07 18:37 38.80908 21.43531 30117 ft 377 kts 304°
2026-05-07 18:37 38.84131 21.38268 30113 ft 378 kts 304°
2026-05-07 18:38 38.87373 21.32964 30113 ft 377 kts 304°
2026-05-07 18:38 38.90601 21.27661 30112 ft 377 kts 304°
2026-05-07 18:39 38.93831 21.22361 30127 ft 377 kts 304°
2026-05-07 18:39 38.97062 21.17061 30112 ft 377 kts 304°
2026-05-07 18:40 39.00258 21.11791 30096 ft 376 kts 304°
2026-05-07 18:40 39.03472 21.06478 30094 ft 376 kts 304°
2026-05-07 18:41 39.06684 21.01167 30091 ft 376 kts 304°
2026-05-07 18:41 39.09895 20.95856 30087 ft 376 kts 304°
2026-05-07 18:42 39.13077 20.90583 30084 ft 376 kts 304°
2026-05-07 18:42 39.16276 20.85258 30084 ft 376 kts 304°
2026-05-07 18:43 39.19481 20.79932 30099 ft 376 kts 303°
2026-05-07 18:43 39.22678 20.74602 30106 ft 375 kts 303°
2026-05-07 18:44 39.25838 20.69299 30116 ft 375 kts 303°
2026-05-07 18:44 39.29018 20.63975 30107 ft 374 kts 303°
2026-05-07 18:45 39.32202 20.58648 30098 ft 375 kts 303°
2026-05-07 18:45 39.35381 20.53327 30087 ft 374 kts 303°
2026-05-07 18:46 39.38556 20.47990 30089 ft 375 kts 303°
2026-05-07 18:46 39.41709 20.42679 30096 ft 375 kts 303°
2026-05-07 18:47 39.44880 20.37329 30096 ft 375 kts 302°
2026-05-07 18:47 39.48052 20.31972 30091 ft 375 kts 302°
2026-05-07 18:48 39.51218 20.26611 30082 ft 375 kts 302°
2026-05-07 18:48 39.54377 20.21242 30071 ft 374 kts 302°
2026-05-07 18:49 39.57515 20.15910 30070 ft 376 kts 302°
2026-05-07 18:49 39.60686 20.10523 30058 ft 376 kts 302°
2026-05-07 18:50 39.63858 20.05120 30044 ft 377 kts 302°
2026-05-07 18:50 39.67014 19.99742 30042 ft 377 kts 302°
2026-05-07 18:51 39.70190 19.94317 30029 ft 377 kts 302°
2026-05-07 18:51 39.73363 19.88880 30035 ft 377 kts 302°
2026-05-07 18:52 39.76527 19.83447 30051 ft 378 kts 302°
2026-05-07 18:52 39.79690 19.78001 30063 ft 378 kts 302°
2026-05-07 18:53 39.82841 19.72576 30058 ft 379 kts 302°
2026-05-07 18:53 39.86018 19.67100 30094 ft 379 kts 302°
2026-05-07 18:54 39.89201 19.61588 30063 ft 382 kts 302°
2026-05-07 18:54 39.92408 19.56037 30060 ft 384 kts 302°
2026-05-07 18:55 39.95613 19.50497 30053 ft 386 kts 302°
2026-05-07 18:55 39.98838 19.44901 30067 ft 387 kts 302°
2026-05-07 18:56 40.02067 19.39280 30056 ft 387 kts 302°
2026-05-07 18:56 40.05295 19.33647 30049 ft 388 kts 302°
2026-05-07 18:57 40.08505 19.28045 30053 ft 388 kts 302°
2026-05-07 18:57 40.11733 19.22397 30048 ft 388 kts 302°
2026-05-07 18:58 40.14963 19.16747 30052 ft 388 kts 302°
2026-05-07 18:58 40.18189 19.11085 30069 ft 389 kts 301°
2026-05-07 18:59 40.21410 19.05402 30051 ft 390 kts 301°
2026-05-07 18:59 40.24427 18.99599 30046 ft 385 kts 292°
2026-05-07 19:00 40.26272 18.93079 30039 ft 382 kts 285°
2026-05-07 19:00 40.27968 18.86486 30041 ft 382 kts 285°
2026-05-07 19:01 40.29672 18.79887 30044 ft 383 kts 285°
2026-05-07 19:01 40.31364 18.73322 30053 ft 383 kts 285°
2026-05-07 19:02 40.33063 18.66702 30046 ft 384 kts 285°
2026-05-07 19:02 40.34760 18.60058 30045 ft 385 kts 285°
2026-05-07 19:03 40.36453 18.53404 30039 ft 385 kts 285°
2026-05-07 19:03 40.38137 18.46789 30036 ft 385 kts 285°
2026-05-07 19:04 40.39829 18.40124 30040 ft 385 kts 285°
2026-05-07 19:04 40.41520 18.33457 30035 ft 385 kts 285°
2026-05-07 19:05 40.43201 18.26785 30033 ft 385 kts 285°
2026-05-07 19:05 40.44862 18.20165 30034 ft 385 kts 285°
2026-05-07 19:06 40.46536 18.13494 30030 ft 384 kts 284°
2026-05-07 19:06 40.49038 18.03488 30042 ft 384 kts 284°
2026-05-07 19:07 40.50697 17.96815 30045 ft 384 kts 284°
2026-05-07 19:07 40.52341 17.90185 30044 ft 384 kts 284°
2026-05-07 19:08 40.53997 17.83512 30039 ft 384 kts 284°
2026-05-07 19:08 40.55645 17.76838 30026 ft 384 kts 284°
2026-05-07 19:09 40.57293 17.70153 30039 ft 384 kts 284°
2026-05-07 19:09 40.58926 17.63504 30031 ft 385 kts 284°
2026-05-07 19:10 40.60564 17.56807 30025 ft 384 kts 284°
2026-05-07 19:10 40.62197 17.50108 30025 ft 384 kts 284°
2026-05-07 19:11 40.63827 17.43412 30021 ft 384 kts 284°
2026-05-07 19:11 40.65444 17.36770 30029 ft 384 kts 284°
2026-05-07 19:12 40.67067 17.30063 30022 ft 385 kts 284°
2026-05-07 19:12 40.68691 17.23340 30020 ft 386 kts 284°
2026-05-07 19:13 40.70316 17.16585 30007 ft 387 kts 284°
2026-05-07 19:13 40.71938 17.09853 30009 ft 388 kts 284°
2026-05-07 19:14 40.73563 17.03064 30018 ft 389 kts 283°
2026-05-07 19:14 40.75182 16.96255 30013 ft 389 kts 283°
2026-05-07 19:15 40.76803 16.89440 30005 ft 390 kts 283°
2026-05-07 19:15 40.78419 16.82653 30003 ft 390 kts 283°
2026-05-07 19:16 40.80034 16.75808 30000 ft 391 kts 283°
2026-05-07 19:16 40.81647 16.68954 30005 ft 391 kts 283°
2026-05-07 19:17 40.82989 16.63256 29989 ft 392 kts 283°
2026-05-07 19:17 40.84861 16.55268 29984 ft 392 kts 283°
2026-05-07 19:18 40.86469 16.48381 29988 ft 392 kts 283°
2026-05-07 19:18 40.87801 16.42648 29989 ft 393 kts 283°
2026-05-07 19:19 40.89405 16.35749 29989 ft 393 kts 283°
2026-05-07 19:19 40.91266 16.27728 30008 ft 393 kts 283°
2026-05-07 19:20 40.92604 16.21938 30007 ft 393 kts 283°
2026-05-07 19:20 40.94184 16.15077 30000 ft 393 kts 283°
2026-05-07 19:21 40.95715 16.08147 30000 ft 392 kts 281°
2026-05-07 19:21 40.97110 15.99996 29990 ft 391 kts 278°
2026-05-07 19:22 40.98038 15.94097 29999 ft 391 kts 278°
2026-05-07 19:22 40.99171 15.87122 29995 ft 391 kts 279°
2026-05-07 19:23 41.00354 15.80100 29992 ft 391 kts 279°
2026-05-07 19:23 41.01542 15.73082 29989 ft 391 kts 279°
2026-05-07 19:24 41.02724 15.66059 29987 ft 391 kts 279°
2026-05-07 19:24 41.03893 15.59079 29993 ft 391 kts 279°
2026-05-07 19:25 41.05056 15.52045 29989 ft 391 kts 279°
2026-05-07 19:25 41.06213 15.45014 29983 ft 391 kts 279°
2026-05-07 19:26 41.07369 15.37984 29982 ft 391 kts 279°
2026-05-07 19:26 41.08517 15.30993 29976 ft 391 kts 279°
2026-05-07 19:27 41.09669 15.23954 29989 ft 391 kts 279°
2026-05-07 19:27 41.10816 15.16898 29969 ft 392 kts 279°
2026-05-07 19:28 41.11981 15.09836 29967 ft 392 kts 279°
2026-05-07 19:28 41.13136 15.02819 29965 ft 392 kts 279°
2026-05-07 19:29 41.14291 14.95747 29963 ft 392 kts 279°
2026-05-07 19:29 41.15438 14.88671 29963 ft 393 kts 279°
2026-05-07 19:30 41.16576 14.81578 29960 ft 393 kts 279°
2026-05-07 19:30 41.17675 14.74514 29956 ft 393 kts 278°
2026-05-07 19:31 41.18768 14.67403 29961 ft 394 kts 278°
2026-05-07 19:31 41.19874 14.60285 29947 ft 394 kts 279°
2026-05-07 19:32 41.20997 14.53166 29947 ft 394 kts 279°
2026-05-07 19:32 41.22113 14.46091 29949 ft 394 kts 279°
2026-05-07 19:33 41.23229 14.38964 29934 ft 394 kts 279°
2026-05-07 19:33 41.24338 14.31837 29923 ft 394 kts 278°
2026-05-07 19:34 41.25443 14.24715 29921 ft 394 kts 278°
2026-05-07 19:34 41.26534 14.17627 29926 ft 394 kts 279°
2026-05-07 19:35 41.27632 14.10485 29917 ft 394 kts 279°
2026-05-07 19:35 41.28725 14.03336 29927 ft 395 kts 279°
2026-05-07 19:36 41.30281 13.96330 29928 ft 400 kts 292°
2026-05-07 19:36 41.33289 13.90091 29959 ft 409 kts 300°
2026-05-07 19:37 41.36576 13.83705 29879 ft 425 kts 300°
2026-05-07 19:37 41.38242 13.80455 29051 ft 425 kts 300°
2026-05-07 19:37 41.39897 13.77228 28114 ft 418 kts 301°
2026-05-07 19:38 41.41528 13.74054 27022 ft 412 kts 301°
2026-05-07 19:38 41.43129 13.70905 26331 ft 407 kts 298°
2026-05-07 19:38 41.44367 13.67624 25856 ft 398 kts 288°
2026-05-07 19:38 41.45110 13.64116 25360 ft 390 kts 278°
2026-05-07 19:39 41.45553 13.60571 24887 ft 385 kts 278°
2026-05-07 19:39 41.45996 13.57067 24410 ft 381 kts 278°
2026-05-07 19:39 41.46441 13.53598 23951 ft 378 kts 278°
2026-05-07 19:39 41.46883 13.50157 23478 ft 375 kts 279°
2026-05-07 19:40 41.47320 13.46738 22977 ft 372 kts 278°
2026-05-07 19:40 41.47746 13.43356 22517 ft 368 kts 278°
2026-05-07 19:40 41.48163 13.40016 22059 ft 364 kts 278°
2026-05-07 19:40 41.48572 13.36741 21614 ft 361 kts 278°
2026-05-07 19:41 41.48985 13.33448 21158 ft 359 kts 278°
2026-05-07 19:41 41.49395 13.30178 20691 ft 356 kts 278°
2026-05-07 19:41 41.49801 13.26929 20233 ft 354 kts 278°
2026-05-07 19:41 41.50202 13.23700 19771 ft 352 kts 277°
2026-05-07 19:42 41.50599 13.20486 19312 ft 350 kts 277°
2026-05-07 19:42 41.50993 13.17285 18853 ft 349 kts 277°
2026-05-07 19:42 41.51386 13.14095 18396 ft 348 kts 277°
2026-05-07 19:42 41.51779 13.10925 17888 ft 346 kts 277°
2026-05-07 19:43 41.52166 13.07807 17439 ft 344 kts 277°
2026-05-07 19:43 41.52554 13.04664 16996 ft 341 kts 277°
2026-05-07 19:43 41.52933 13.01554 16568 ft 338 kts 277°
2026-05-07 19:43 41.53308 12.98468 16177 ft 336 kts 277°
2026-05-07 19:44 41.53682 12.95441 16044 ft 325 kts 279°
2026-05-07 19:44 41.54371 12.92608 15907 ft 319 kts 293°
2026-05-07 19:44 41.55555 12.90134 15728 ft 316 kts 308°
2026-05-07 19:44 41.57094 12.88088 15580 ft 317 kts 314°
2026-05-07 19:45 41.58702 12.86086 15379 ft 315 kts 314°
2026-05-07 19:45 41.60304 12.84089 15180 ft 314 kts 314°
2026-05-07 19:45 41.61900 12.82096 14980 ft 314 kts 314°
2026-05-07 19:45 41.63490 12.80106 14775 ft 313 kts 314°
2026-05-07 19:46 41.65076 12.78122 14585 ft 312 kts 314°
2026-05-07 19:46 41.66658 12.76146 14386 ft 311 kts 314°
2026-05-07 19:46 41.68241 12.74167 14220 ft 311 kts 314°
2026-05-07 19:46 41.69799 12.72214 14016 ft 311 kts 314°
2026-05-07 19:47 41.71372 12.70237 13820 ft 310 kts 314°
2026-05-07 19:47 41.72939 12.68264 13615 ft 309 kts 314°
2026-05-07 19:47 41.74504 12.66296 13414 ft 308 kts 314°
2026-05-07 19:47 41.76065 12.64333 13221 ft 307 kts 314°
2026-05-07 19:48 41.77621 12.62372 13022 ft 307 kts 314°
2026-05-07 19:48 41.79175 12.60418 12839 ft 306 kts 315°
2026-05-07 19:48 41.80726 12.58468 12640 ft 305 kts 314°
2026-05-07 19:48 41.82224 12.56522 12447 ft 304 kts 313°
2026-05-07 19:49 41.83718 12.54519 12257 ft 303 kts 313°
2026-05-07 19:49 41.85195 12.52505 12065 ft 302 kts 312°
2026-05-07 19:49 41.86663 12.50494 11845 ft 299 kts 312°
2026-05-07 19:49 41.88097 12.48534 11717 ft 290 kts 312°
2026-05-07 19:50 41.89574 12.46754 11554 ft 283 kts 323°
2026-05-07 19:50 41.91311 12.45554 11433 ft 281 kts 339°
2026-05-07 19:50 41.93180 12.44770 11286 ft 281 kts 341°
2026-05-07 19:50 41.95020 12.44013 11076 ft 279 kts 341°
2026-05-07 19:51 41.96872 12.43249 10762 ft 278 kts 341°
2026-05-07 19:51 41.98715 12.42485 10452 ft 276 kts 341°
2026-05-07 19:51 42.00549 12.41722 10135 ft 275 kts 341°
2026-05-07 19:51 42.02375 12.40961 9824 ft 274 kts 341°
2026-05-07 19:52 42.04194 12.40203 9478 ft 273 kts 341°
2026-05-07 19:52 42.05997 12.39455 9143 ft 271 kts 341°
2026-05-07 19:52 42.07799 12.38707 8785 ft 270 kts 341°
2026-05-07 19:52 42.09559 12.37973 8443 ft 268 kts 341°
2026-05-07 19:53 42.11312 12.37239 8271 ft 259 kts 341°
2026-05-07 19:53 42.13016 12.36525 7978 ft 255 kts 341°
2026-05-07 19:53 42.14705 12.35817 7649 ft 253 kts 342°
2026-05-07 19:53 42.16385 12.35112 7290 ft 252 kts 341°
2026-05-07 19:54 42.18057 12.34409 6949 ft 251 kts 342°
2026-05-07 19:54 42.19715 12.33713 6643 ft 248 kts 342°
2026-05-07 19:54 42.21340 12.32980 6370 ft 244 kts 335°
2026-05-07 19:54 42.22678 12.31668 5992 ft 242 kts 309°
2026-05-07 19:55 42.23465 12.29694 5647 ft 239 kts 283°
2026-05-07 19:55 42.23532 12.27478 5532 ft 240 kts 258°
2026-05-07 19:55 42.22881 12.25422 5405 ft 240 kts 232°
2026-05-07 19:55 42.21636 12.23950 5277 ft 240 kts 208°
2026-05-07 19:56 42.20156 12.22897 5156 ft 241 kts 207°
2026-05-07 19:56 42.18671 12.21846 5024 ft 241 kts 207°
2026-05-07 19:56 42.17202 12.20805 4908 ft 242 kts 207°
2026-05-07 19:56 42.15692 12.19732 4790 ft 242 kts 206°
2026-05-07 19:57 42.14142 12.18967 4657 ft 240 kts 191°
2026-05-07 19:57 42.12507 12.18484 4518 ft 242 kts 191°
2026-05-07 19:57 42.10862 12.17994 4140 ft 243 kts 191°
2026-05-07 19:57 42.09203 12.17499 3736 ft 246 kts 191°
2026-05-07 19:58 42.07514 12.17060 3326 ft 248 kts 182°
2026-05-07 19:58 42.05828 12.17242 3169 ft 237 kts 163°
2026-05-07 19:58 42.04334 12.17851 3177 ft 219 kts 160°
2026-05-07 19:58 42.02934 12.18440 3225 ft 204 kts 160°
2026-05-07 19:59 42.01599 12.19003 3015 ft 199 kts 160°
2026-05-07 19:59 42.00284 12.19558 3007 ft 197 kts 160°
2026-05-07 19:59 41.98981 12.20107 2877 ft 196 kts 160°
2026-05-07 19:59 41.97678 12.20656 2650 ft 196 kts 159°
2026-05-07 20:00 41.96405 12.21190 2391 ft 186 kts 159°
2026-05-07 20:00 41.95186 12.21702 2167 ft 181 kts 160°
2026-05-07 20:00 41.94008 12.22198 1937 ft 179 kts 160°
2026-05-07 20:00 41.92848 12.22685 1710 ft 168 kts 160°
2026-05-07 20:01 41.91771 12.23140 1452 ft 157 kts 160°
2026-05-07 20:01 41.90746 12.23574 1245 ft 152 kts 160°
2026-05-07 20:01 41.89738 12.23995 1042 ft 151 kts 161°
2026-05-07 20:01 41.88746 12.24413 901 ft 149 kts 162°
2026-05-07 20:02 41.87765 12.24826 676 ft 147 kts 162°
2026-05-07 20:02 41.86789 12.25238 517 ft 148 kts 162°
2026-05-07 20:02 41.85812 12.25645 326 ft 147 kts 162°
2026-05-07 20:02 41.84855 12.26046 134 ft 145 kts 163°
2026-05-07 20:03 41.83911 12.26439 21 ft 132 kts 163°
2026-05-07 20:03 41.83190 12.26741 12 ft 84 kts 163°
2026-05-07 20:03 41.82776 12.26914 14 ft 54 kts 162°
2026-05-07 20:03 41.82453 12.27048 12 ft 37 kts 163°
2026-05-07 20:04 41.82215 12.27131 10 ft 34 kts 173°
2026-05-07 20:04 41.81987 12.27115 11 ft 30 kts 191°
2026-05-07 20:04 41.81813 12.27066 11 ft 26 kts 193°
2026-05-07 20:04 41.81628 12.27071 12 ft 28 kts 165°
2026-05-07 20:05 41.81437 12.27149 12 ft 28 kts 163°
2026-05-07 20:05 41.81246 12.27230 12 ft 29 kts 162°
2026-05-07 20:05 41.81071 12.27304 12 ft 24 kts 162°
2026-05-07 20:05 41.80900 12.27350 12 ft 26 kts 186°
2026-05-07 20:06 41.80731 12.27308 13 ft 21 kts 192°
2026-05-07 20:06 41.80640 12.27166 14 ft 21 kts 249°
2026-05-07 20:06 41.80589 12.26980 15 ft 22 kts 250°
2026-05-07 20:06 41.80533 12.26777 14 ft 24 kts 249°
2026-05-07 20:07 41.80474 12.26565 15 ft 25 kts 250°
2026-05-07 20:07 41.80417 12.26386 16 ft 18 kts 223°
2026-05-07 20:07 41.80299 12.26397 14 ft 18 kts 160°
2026-05-07 20:07 41.80185 12.26387 16 ft 16 kts 203°
2026-05-07 20:08 41.80087 12.26328 15 ft 15 kts 204°
2026-05-07 20:08 41.80000 12.26274 15 ft 13 kts 206°
2026-05-07 20:08 41.79924 12.26226 14 ft 12 kts 205°
2026-05-07 20:08 41.79855 12.26183 14 ft 10 kts 204°
2026-05-07 20:09 41.79793 12.26145 14 ft 9 kts 205°
2026-05-07 20:09 41.79764 12.26086 15 ft 7 kts 272°
2026-05-07 20:09 41.79780 12.26028 14 ft 6 kts 294°
2026-05-07 20:10 41.79825 12.25900 14 ft 8 kts 295°
2026-05-07 20:10 41.79823 12.25841 16 ft 8 kts 232°
2026-05-07 20:10 41.79784 12.25778 14 ft 9 kts 229°
2026-05-07 20:10 41.79744 12.25732 14 ft 6 kts 240°
2026-05-07 20:11 41.79754 12.25692 14 ft 3 kts 297°
2026-05-07 20:11 41.79762 12.25670 15 ft 2 kts 295°
2026-05-07 20:11 41.79764 12.25664 15 ft 0 kts 295°